Location: Anciles
(42.5833°N, 0.5167°E)
Time: 04:38:24
(UTC+00:00)

SKYMED 2 - Pass Details

Date: 10 December 2019
Orbit: 621 x 623 km, 97.9° (Epoch: 21 January)

Event Time Altitude Azimuth Distance (km) Brightness Sun altitude
Exits shadow 18:18:20 16° 7° (N) 1,657 5.5 -20.2°
Maximum altitude 18:21:49 73° 286° (WNW) 656 3.7 -20.8°
Drops below altitude 10° 18:26:07 10° 201° (SSW) 1,986 6.6 -21.6°
Sets 18:28:18 0° 199° (SSW) 2,887 7.4 -22.0°
